This demonstration page uses our WeatherBlox Daily Observations layout. Learn more.

Left ArrowRight Arrow

Hourly Observations for November 19, 2021

Temp ( °F °C ) Dew Point ( °F °C ) Humidity (%) Winds ( mph kmh ) Pressure ( in mb ) Visibility ( mi km ) Precip ( " mm )
12:53 am 00:53 Cloudy 44 6.7 9 -12.8 24 24 ESE 8 13 30.37 1029 10 16 0.00 0.00
1:53 am 01:53 Clear 42 5.6 9 -12.8 25 25 E 8 13 30.35 1028 10 16 0.00 0.00
2:53 am 02:53 Clear 40 4.4 10 -12.2 29 29 ESE 8 13 30.35 1028 10 16 0.00 0.00
3:53 am 03:53 Clear 38 3.3 10 -12.2 31 31 ESE 7 11 30.33 1027 10 16 0.00 0.00
4:53 am 04:53 Clear 37 2.8 10 -12.2 33 33 ESE 6 9 30.33 1027 10 16 0.00 0.00
5:53 am 05:53 Clear 36 2.2 11 -11.7 35 35 ESE 7 11 30.33 1027 10 16 0.00 0.00
6:53 am 06:53 Clear 36 2.2 12 -11.1 37 37 ESE 6 9 30.32 1027 10 16 0.00 0.00
7:53 am 07:53 Sunny 39 3.9 13 -10.6 34 34 SE 9 15 30.33 1027 10 16 0.00 0.00
8:53 am 08:53 Sunny 43 6.1 14 -10 31 31 SSE 12 19 30.32 1027 10 16 0.00 0.00
9:53 am 09:53 Sunny 50 10 15 -9.4 25 25 SSE 14 22 30.31 1026 10 16 0.00 0.00
10:53 am 10:53 Sunny 53 11.7 17 -8.3 24 24 S 12 19 30.29 1026 10 16 0.00 0.00
11:53 am 11:53 Sunny 56 13.3 19 -7.2 24 24 S 8 13 30.26 1025 10 16 0.00 0.00
12:53 pm 12:53 Sunny 59 15 24 -4.4 26 26 S 8 13 30.19 1022 10 16 0.00 0.00
1:53 pm 13:53 Sunny 65 18.3 31 -0.6 28 28 SSE 8 13 30.13 1020 10 16 0.00 0.00
2:53 pm 14:53 Sunny 68 20 36 2.2 31 31 SSE 12 19 30.09 1019 10 16 0.00 0.00
3:53 pm 15:53 Sunny 70 21.1 37 2.8 30 30 SSE 12 19 30.06 1018 10 16 0.00 0.00
4:53 pm 16:53 Sunny 69 20.6 37 2.8 31 31 SSE 12 19 30.05 1018 10 16 0.00 0.00
5:53 pm 17:53 Clear 66 18.9 32 0 28 28 SE 15 24 30.05 1018 10 16 0.00 0.00
6:53 pm 18:53 Clear 61 16.1 31 -0.6 32 32 SE 13 20 30.06 1018 10 16 0.00 0.00
7:53 pm 19:53 Clear 59 15 31 -0.6 35 35 ESE 12 19 30.07 1018 10 16 0.00 0.00
8:53 pm 20:53 Clear 58 14.4 33 0.6 39 39 SE 13 20 30.06 1018 10 16 0.00 0.00
9:53 pm 21:53 Clear 54 12.2 33 0.6 45 45 SE 12 19 30.05 1018 10 16 0.00 0.00
10:53 pm 22:53 Clear 54 12.2 32 0 43 43 SE 13 20 30.04 1017 10 16 0.00 0.00
11:53 pm 23:53 Clear 51 10.6 33 0.6 50 50 SE 10 17 30.04 1017 10 16 0.00 0.00

Powered by AerisWeather